Location: Newark
(13.8117°N, 3.6025°W)
Time: 12:34:12
(UTC+00:00)

Vanguard 2 - Pass Details

Date: 02 September 2019
Orbit: 554 x 2937 km, 32.9° (Epoch: 16 September)

Event Time Altitude Azimuth Distance (km) Brightness Sun altitude
Rises 06:05:18 0° 226° (SW) 4,351 10.9 -0.3°
Reaches altitude 10° 06:08:58 10° 221° (SW) 2,994 10.1 0.6°
Maximum altitude 06:15:24 45° 150° (SSE) 1,074 8.6 2.2°
Drops below altitude 10° 06:19:46 10° 77° (ENE) 2,032 12.2 3.2°
Sets 06:21:50 0° 70° (ENE) 2,824 12.5 3.7°
